Location: North Bay
(46.3091°N, 79.4608°W)
Time: 18:24:15
(UTC-05:00)

N. Korean satellite - Pass Details

Date: 22 October 2019
Orbit: 456 x 506 km, 97.2° (Epoch: 14 November)

Event Time Altitude Azimuth Distance (km) Brightness Sun altitude
Rises 06:13:22 0° 30° (NNE) 2,566 10.7 -16.4°
Reaches altitude 10° 06:16:10 10° 54° (NE) 1,689 10.1 -15.9°
Maximum altitude 06:18:21 15° 91° (E) 1,400 10.1 -15.5°
Drops below altitude 10° 06:20:32 10° 128° (SE) 1,696 10.1 -15.2°
Sets 06:23:20 0° 152° (SSE) 2,581 10.7 -14.7°
